User: anonymous   Login
Location: Oshawa
(43.9000°N, 78.8670°W)
Time: 00:36:42
(UTC-05:00)
Language:

CZ-4C R/B - Orbit

View from above orbital plane
View from above orbital plane
View from above satellite
View from above satellite

Ground track
Ground track

The orbit data is extracted from the following two-line orbital elements,

1 32290U 07055B   16039.23559770  .00007652  00000-0  23533-3 0  9999
2 32290  97.5295 130.7901 0074567  93.1825 267.7951 15.31216301455984
Epoch (UTC): 08 February 2016 05:39:15
Eccentricity: 0.0074567
inclination: 97.5295°
perigee height: 421 km
apogee height: 523 km
right ascension of ascending node: 130.7901°
argument of perigee: 93.1825°
revolutions per day: 15.31216301
mean anomaly at epoch: 267.7951°
orbit number at epoch: 45598

The dashed part of the orbit path shows where the satellite is in the earth's shadow,  

DLR